Location: Lower Kingswood
(51.2667°N, 0.2167°W)
Time: 11:31:28
(UTC+00:00)

Cosmos 2285 Rocket - Pass Details

Date: 26 September 2023
Orbit: 970 x 999 km, 74.0° (Epoch: 10 December)

Event Time Altitude Azimuth Distance (km) Brightness Sun altitude
Rises 04:23:47 0° 332° (NNW) 3,676 6.9 -14.6°
Reaches altitude 10° 04:26:22 10° 329° (NNW) 2,725 6.2 -14.2°
Maximum altitude 04:32:28 54° 254° (WSW) 1,171 4.1 -13.3°
Drops below altitude 10° 04:38:34 10° 179° (S) 2,721 6.2 -12.3°
Sets 04:41:09 0° 174° (S) 3,668 6.9 -11.9°
